Regional Weather Roundup
Issued by NWS Lake Charles, LA

Home | Current Version | Previous Version | Text Only | Print | Product List | Glossary On
Versions: 1 2 3 4 5 6 7 8 9 10 11 12 13 14 15 16 17 18 19 20 21 22 23 24 25 26 27 28 29 30 31 32 33 34 35 36 37 38 39 40 41 42 43 44 45 46 47 48 49 50
891
ASUS44 KLCH 202310
RWRLCH
REGIONAL WEATHER ROUNDUP
NATIONAL WEATHER SERVICE LAKE CHARLES LA
500 PM CST MON FEB 20 2017

Note: "fair" indicates few or no clouds below 12,000 feet with no
significant weather and/or obstructions to visibility.


ACROSS SOUTHEAST TEXAS

CITY           SKY/WX    TMP DP  RH WIND       PRES   REMARKS
BEAUMONT       CLOUDY    62  58  86 N9        29.95S
BEAUMONT CITY  LGT RAIN  62  59  89 NE6       29.96F
ORANGE         DRIZZLE   61  60  95 MISG      29.98R
JASPER         LGT RAIN  61  59  91 NE3       29.98R
$$

ACROSS CENTRAL LOUISIANA

CITY           SKY/WX    TMP DP  RH WIND       PRES   REMARKS
LEESVILLE      LGT RAIN  59  59 100 NW10      29.94S VSB 3/4
FULLERTON      LGT RAIN  60  58  92 VRB5      29.93R
ALEXANDRIA INT RAIN      60  58  92 W20G30    29.92R FOG
ESLER FIELD      N/A    N/A N/A N/A MISG      29.92R
DERIDDER       DRIZZLE   60  58  95 N8        29.97S
OAKDALE        LGT RAIN  61  58  91 NW7G17    29.96R
OPELOUSAS      CLOUDY    72  68  87 MISG      29.91R
$$

ACROSS SOUTHWEST AND SOUTH CENTRAL LOUISIANA

CITY           SKY/WX    TMP DP  RH WIND       PRES   REMARKS
SULPHUR        CLOUDY    62  60  93 N9        29.95F
LAKE CHARLES   LGT RAIN  62  61  96 N9        29.94R
CHENNAULT INT  CLOUDY    59  59 100 N10       29.96R
CAMERON PHI    NOT AVBL
DEQUINCY       DRIZZLE   59  59  98 N7        29.95S
JENNINGS       RAIN      60  59  95 NW15      29.95S
LAFAYETTE        N/A     77  70  79 MISG      29.89S
NEW IBERIA     LGT RAIN  74  68  81 SE20G28   29.90F
ABBEVILLE      RAIN      66  64  94 W17G23    29.95R
PATTERSON      CLOUDY    74  70  87 SE13      29.94F
SALT POINT       N/A     72  69  90 SE13G21   29.90F
$$

SELECTED SITES ACROSS THE REGION

CITY           SKY/WX    TMP DP  RH WIND       PRES   REMARKS
HOUSTON BUSH   LGT RAIN  62  58  86 W8        29.96R
HOUSTON HOBBY  LGT RAIN  62  60  93 W10       29.95R
GALVESTON      CLOUDY    65  60  84 NE10      29.95R
COLLEGE STAT   CLOUDY    64  59  83 VRB6      29.94R
CONROE         LGT RAIN  60  59  96 CALM      29.97R
HUNTSVILLE     CLOUDY    61  58  90 NE7       29.92F
LUFKIN         LGT RAIN  59  57  93 E12       29.92F
SHREVEPORT     LGT RAIN  61  59  93 N3        29.94F FOG
MONROE         CLOUDY    76  62  62 SE5       29.88F
NATCHEZ MS     CLOUDY    75  63  64 SE12      29.90F
BATON ROUGE    CLOUDY    76  67  73 SE8       29.93S
N.O. INTL ARPT CLOUDY    74  67  78 SE14      29.97F
SLIDELL        CLOUDY    73  65  75 SE12      29.99F
$$

MARINE REPORTS

STATION/POSITION TIME  SKY/WX   TEMP    WIND        PRES    VSBY
                                AIR SEA DIR/SP/G
                 (UTC)          (F)     (DEG/KT/KT) (MB)    (MI)
BUOY 30 S HIGH I 2250            63 64   30/ 16/ 17 1012.6F
WVE H/P(F/S)=  3/ 8

SEA RIM ST PARK  2300            62      20/ 10/ 12 1014.5F
PORT ARTHUR      2248               65  360/  8/ 10 1014.3R
SABINE PASS N    2248                   350/  9/ 13 1015.7R
TEXAS POINT      NOT AVBL
CALCASIEU PASS   2248            63 66  360/ 12/ 15   N/A
LK CHARLES BEACH 2248            61 67              1014.7R
MARSH ISLAND     2200            67                   N/A
FRESH WATER LOCK 2248            61 67  300/ 16/ 24 1014.1R
AMERADA PASS     2248            72 59  120/  8/ 13 1013.7F
$$




USA.gov is the U.S. government's official web portal to all federal, state and local government web resources and services.